Wind_Speed
19 21 23 25 26 26 26 26 26 25 26 26 27 28 29 31 31 30 29 28 27 27 26 26 26 26 26 25 24 23 22 22 21 20 19 17 16 15 14 14 14 15 15 16 15 14 12 12 11 10 9 9 9 8 7 7 7 7 7 9 10 10 9 7 6 5 5 7 10 13 15 15 14 13 12 12 12 12 12 11 11 11 10 10 9 8
19 21 22 24 25 26 25 25 24 23 23 24 26 27 28 28 28 28 28 27 27 27 26 26 25 25 25 25 24 23 22 21 20 19 18 17 16 15 14 14 15 15 15 15 14 13 13 12 11 10 10 10 9 8 8 8 9 9 10 12 12 11 9 7 5 4 3 3 5 7 10 13 14 13 13 12 11 11 11 11 10 10 10 9 9 8
18 20 21 23 24 24 24 24 23 23 22 23 25 26 26 26 26 26 26 26 26 26 25 25 25 25 24 24 23 22 21 20 19 18 17 16 15 15 14 14 14 14 14 14 14 13 13 12 11 11 11 11 10 9 9 9 10 11 11 12 12 11 8 6 3 2 1 2 3 4 5 7 10 12 13 13 12 12 11 11 10 9 9 9 8 8
19 20 21 23 23 23 24 25 25 24 24 24 25 25 24 23 24 25 25 25 25 25 25 24 24 24 24 23 22 21 20 19 18 17 16 15 15 14 14 13 13 13 13 13 13 13 13 12 11 11 12 11 11 10 10 10 11 12 12 11 9 8 5 3 2 1 1 3 4 5 5 4 5 7 9 11 11 11 11 11 10 9 8 8 8 8
18 19 22 24 23 22 24 26 27 27 26 26 25 24 23 23 24 25 25 25 25 24 24 24 23 23 23 22 21 20 19 18 17 16 15 14 14 13 12 12 12 12 12 13 13 13 14 14 12 12 12 12 11 11 11 11 11 12 11 10 9 7 6 4 4 3 3 4 6 6 6 5 5 5 5 6 8 9 9 10 10 10 9 9 8 8
16 18 22 23 22 22 24 26 28 29 27 26 26 25 25 25 25 25 24 24 24 24 24 23 22 22 21 21 20 19 18 16 16 15 14 14 13 12 11 11 11 12 13 13 14 15 16 16 14 13 12 12 11 11 11 11 11 11 10 10 8 7 6 5 5 6 6 6 6 6 6 5 5 5 5 5 5 6 7 8 8 9 10 10 10 10
16 18 21 22 22 22 24 25 27 28 28 27 26 26 26 25 24 24 24 24 24 23 23 22 21 20 19 19 18 17 16 15 15 15 14 13 13 12 12 12 12 13 13 14 15 16 18 18 16 14 13 12 12 12 12 12 11 11 10 8 7 6 6 7 8 9 9 7 5 5 5 5 5 5 5 5 6 7 7 7 8 8 9 9 10 10
16 18 21 21 20 20 21 23 25 27 28 28 27 25 24 24 24 23 24 24 24 23 21 20 19 19 18 17 16 16 15 15 15 14 14 14 14 14 13 13 13 13 15 16 16 18 19 18 17 15 14 13 12 12 13 12 12 11 9 8 7 6 6 8 9 9 8 7 5 4 4 4 4 4 4 4 5 7 8 8 8 8 8 8 8 7
19 18 20 20 20 19 18 19 21 25 27 27 27 26 24 23 22 23 23 23 22 22 21 20 19 18 18 17 16 16 15 15 15 15 15 15 15 14 14 13 13 14 16 17 18 18 19 18 17 15 14 13 13 13 13 13 12 11 10 8 7 6 6 7 7 8 7 6 5 4 4 4 3 3 2 3 5 6 7 7 8 8 8 8 7 6
20 20 19 20 21 20 18 17 19 23 25 26 26 25 24 23 22 21 20 20 21 22 21 20 20 19 18 18 17 16 16 16 16 16 16 15 15 14 13 13 14 15 18 19 19 18 18 18 17 16 14 13 13 14 14 14 13 11 10 9 7 6 6 6 6 6 7 7 6 6 5 4 3 2 2 2 4 5 6 7 7 7 7 7 6 5
18 20 20 20 20 20 19 19 20 22 25 25 24 23 23 24 23 21 18 18 20 21 21 21 20 20 19 18 17 17 16 16 16 16 16 15 14 13 13 13 14 17 20 21 20 19 19 18 17 16 15 14 13 14 14 14 13 11 10 9 8 7 6 6 6 7 8 9 9 8 6 5 4 2 1 2 3 4 5 5 5 5 5 5 5 4
17 18 19 19 19 19 18 18 20 23 23 22 18 16 18 22 24 23 21 19 19 20 21 21 21 19 18 17 17 17 17 16 16 15 15 14 13 13 13 13 15 17 21 22 21 19 19 18 18 16 15 14 14 14 14 14 13 11 10 9 8 7 7 7 7 8 9 10 10 8 7 5 4 3 2 2 2 3 4 4 4 4 5 5 5 5
18 18 18 18 19 19 18 18 18 20 21 20 17 15 17 21 24 24 22 21 20 21 22 21 20 19 18 17 16 16 16 16 16 15 14 13 13 13 13 13 15 17 21 23 22 20 19 18 17 16 15 15 14 14 14 13 12 11 10 9 9 8 8 8 8 8 9 10 9 8 7 6 5 4 3 3 3 3 3 4 4 4 5 6 6 6
17 17 17 17 17 18 19 19 18 18 19 21 21 22 23 25 26 24 21 19 19 21 22 21 19 18 17 17 16 16 16 16 16 15 15 14 14 13 14 14 15 18 21 23 23 21 19 18 18 17 16 16 15 15 14 13 12 11 11 10 9 9 9 9 9 9 9 9 9 8 7 6 6 5 5 4 4 3 4 4 4 5 6 6 7 7
17 16 15 14 15 17 19 20 20 20 22 24 24 24 24 25 26 24 20 17 17 19 20 19 18 17 17 17 16 16 17 17 17 16 15 15 14 14 14 14 16 18 21 23 23 21 20 19 19 18 18 17 17 16 15 14 13 12 11 11 10 10 10 10 10 9 9 9 8 8 8 7 7 6 6 5 5 4 4 4 4 5 6 6 7 7
18 17 15 14 15 18 20 22 22 22 23 24 25 24 23 23 25 25 22 19 18 19 18 15 13 13 15 17 18 18 18 17 17 17 16 15 15 14 15 15 16 18 21 22 22 21 20 21 20 20 20 19 18 17 16 15 14 13 12 12 11 11 10 10 10 10 9 9 9 8 8 7 7 6 6 6 5 5 5 4 4 5 5 5 6 6
18 18 17 16 16 18 21 24 25 25 24 25 26 26 26 26 26 26 24 22 20 18 17 14 9 6 8 13 18 20 19 18 17 17 16 15 14 14 15 16 17 20 22 22 22 21 21 22 22 22 21 20 19 18 16 15 14 14 13 12 12 11 11 11 10 10 9 9 8 8 7 7 6 6 5 5 5 4 4 4 4 4 4 4 5 5
18 19 18 17 17 18 22 24 25 25 24 25 27 27 28 27 27 26 25 23 21 18 16 15 12 8 6 7 14 21 21 19 18 17 16 15 15 14 15 17 19 21 22 23 22 22 22 23 23 23 22 20 19 18 17 16 15 14 14 13 13 12 12 11 11 10 9 9 8 7 6 6 5 5 4 4 4 3 3 3 3 3 3 3 3 3
19 20 19 19 18 20 22 24 25 26 26 27 28 27 25 25 25 25 25 24 23 21 19 16 14 12 9 8 14 21 22 20 18 17 15 15 15 15 15 17 20 21 23 23 23 22 23 23 24 23 22 20 19 18 17 16 16 15 14 14 13 13 12 12 11 10 9 8 7 6 6 5 4 4 4 3 3 3 2 2 2 2 2 2 2 2
21 22 23 23 21 21 22 26 29 31 31 32 32 29 26 25 24 24 24 24 24 23 22 18 16 14 13 13 17 21 23 22 20 17 15 15 15 16 16 18 20 21 22 23 23 23 23 23 23 23 21 20 19 18 17 17 16 15 15 14 13 13 12 12 11 10 9 8 7 6 6 5 4 4 4 3 3 2 2 2 2 2 2 2 2 2
22 24 29 29 26 23 23 28 33 36 37 36 34 30 28 26 25 24 24 25 24 23 21 18 16 15 16 16 18 21 23 23 21 18 15 14 14 16 18 18 19 20 21 22 23 23 23 23 22 20 19 18 18 18 17 17 16 16 15 14 13 13 12 12 11 10 9 8 7 6 6 5 5 4 4 4 3 3 3 3 3 3 2 2 3 3
27 29 34 35 34 32 31 34 36 38 39 38 35 32 29 28 26 26 27 26 24 22 20 17 17 18 18 19 20 22 24 24 22 19 15 11 11 15 18 19 19 19 20 21 22 23 23 22 21 19 17 16 16 17 16 16 16 15 14 14 13 13 12 11 11 10 9 9 8 7 6 6 5 5 4 4 4 4 4 4 4 4 4 4 4 4
34 35 38 39 39 38 38 38 38 39 40 40 39 37 35 33 31 30 30 29 27 24 23 21 21 20 19 19 20 22 24 25 24 20 15 10 10 14 19 20 19 19 19 21 22 23 24 23 22 21 18 16 15 15 15 15 15 14 14 13 13 13 12 12 11 10 10 9 8 7 7 6 6 5 5 5 5 5 5 5 5 5 6 6 6 6
40 40 41 41 41 40 39 38 38 39 40 40 39 37 36 34 33 32 32 32 30 27 25 23 20 17 16 17 20 22 24 24 23 20 14 10 11 16 20 21 20 19 20 22 23 24 24 24 24 23 21 19 17 15 15 14 14 14 14 13 13 13 13 12 11 11 10 9 8 8 7 7 6 6 6 6 7 7 7 8 8 8 8 8 8 8
43 42 42 42 42 41 40 39 38 39 40 39 38 36 33 31 31 31 31 31 29 26 23 19 15 13 14 16 19 21 23 24 23 20 13 10 12 17 21 22 20 19 20 22 23 24 24 24 24 23 23 22 20 18 16 15 14 14 14 14 14 14 13 13 12 11 10 10 9 8 8 7 7 7 7 8 8 9 10 10 10 10 10 10 10 10
43 42 41 41 41 40 40 38 38 38 39 40 39 36 33 31 30 29 28 27 26 25 22 17 13 11 13 15 16 19 22 23 23 20 14 12 13 16 21 22 21 20 20 21 22 22 22 23 23 23 22 22 21 20 18 17 16 15 15 15 15 15 14 13 13 12 11 10 10 9 9 9 9 9 9 10 10 11 11 11 12 12 12 12 12 12
40 39 38 37 38 38 38 37 36 37 38 40 40 38 35 33 31 28 26 26 27 25 21 15 10 9 11 12 13 16 21 22 21 19 17 14 13 15 19 22 22 21 20 20 20 20 21 21 22 22 21 21 20 20 19 18 18 17 16 16 16 16 15 14 14 13 12 12 11 11 11 11 12 12 12 12 13 13 13 13 13 13 13 13 13 14
37 36 35 34 35 35 36 35 35 36 37 39 39 38 36 35 32 27 24 27 28 26 20 15 11 9 9 10 13 16 21 21 20 19 18 16 13 14 19 22 23 22 20 19 18 19 19 20 20 21 20 20 19 19 19 19 18 18 17 17 16 16 16 15 15 14 14 14 13 13 14 14 14 14 14 15 15 15 15 15 15 15 14 14 13 13
31 31 29 30 31 32 33 33 33 34 35 36 36 36 35 35 33 30 29 30 29 24 19 17 14 12 11 12 13 16 18 19 20 20 19 16 13 15 21 23 23 22 21 17 14 13 14 16 17 19 19 19 19 18 18 18 18 18 17 17 16 16 16 16 15 15 15 15 15 15 16 16 16 16 17 17 17 17 17 17 17 16 16 15 15 14
24 24 24 25 26 28 29 30 30 31 32 33 33 33 34 34 34 34 33 33 29 24 18 17 16 15 14 13 11 9 11 16 20 21 20 15 13 15 22 23 23 23 21 15 9 5 6 9 12 15 16 17 17 17 17 17 17 17 17 16 16 16 16 16 16 16 16 16 17 17 17 17 18 18 18 18 18 18 18 18 18 18 18 18 17 17
25 25 25 26 26 28 29 30 30 30 30 31 32 32 33 33 32 32 32 33 30 26 21 18 17 17 17 12 7 4 5 15 21 22 20 15 14 17 22 22 22 24 22 15 8 3 3 4 7 10 12 14 15 15 16 16 16 16 16 16 16 16 16 16 16 16 16 17 17 17 17 17 17 18 18 18 18 18 18 18 17 17 17 18 18 18
29 30 30 30 30 31 32 32 32 31 31 31 32 32 31 31 30 30 31 32 30 27 24 21 20 20 19 15 10 6 7 17 23 23 22 17 17 19 22 21 21 23 23 18 12 6 4 4 6 8 9 10 12 13 14 14 15 15 15 14 14 15 15 15 15 15 15 15 15 15 15 15 15 16 16 16 16 16 16 15 15 15 15 15 15 15
33 32 33 33 33 33 33 33 33 32 32 31 31 31 30 29 28 28 30 31 30 27 25 24 22 20 18 16 11 9 11 19 24 25 23 19 18 20 22 21 20 21 21 18 12 8 6 6 7 8 9 9 10 11 12 12 13 13 13 12 12 12 13 13 12 12 13 13 13 13 13 13 13 14 14 14 14 14 13 13 13 13 12 12 11 11
33 33 33 33 33 33 33 33 32 31 31 30 30 29 28 27 27 27 29 30 29 27 25 25 24 22 19 15 11 10 13 21 25 25 23 20 19 20 23 21 19 19 18 14 10 8 7 9 9 9 8 9 9 9 10 10 11 11 10 10 10 10 10 10 10 10 11 11 11 11 12 12 12 12 13 13 13 13 12 12 12 12 12 11 10 9
32 32 32 32 31 31 31 31 30 29 29 28 27 27 27 26 26 27 28 28 28 26 25 25 25 24 22 18 14 13 16 22 26 26 23 20 20 21 23 21 20 19 16 13 10 8 7 9 10 9 8 7 7 8 9 10 10 9 9 9 9 9 9 9 9 9 10 10 10 11 11 11 12 12 12 12 12 12 12 12 11 11 12 12 11 10
30 29 29 29 29 29 29 28 28 28 27 26 26 26 25 25 25 26 27 27 26 25 24 24 24 24 23 21 19 18 21 24 26 26 24 21 20 21 21 21 21 20 16 13 11 9 8 8 9 9 9 7 6 7 9 10 10 10 9 9 9 9 9 9 9 9 9 10 10 10 11 11 11 11 11 11 11 11 11 11 11 11 11 11 11 11
28 26 26 27 27 27 27 27 27 27 26 26 25 25 25 25 25 25 26 26 24 23 21 21 21 21 20 19 19 20 23 25 26 26 23 21 20 21 22 22 23 21 18 14 13 12 11 9 8 8 8 7 6 6 8 11 10 9 9 9 9 9 9 9 9 8 8 8 9 9 9 9 9 9 9 9 9 9 9 9 9 9 9 10 10 10
25 24 24 25 26 26 26 26 26 26 27 26 26 25 25 25 25 25 25 24 23 21 20 19 18 17 16 15 16 18 21 24 25 24 22 19 18 20 23 23 23 22 20 17 15 14 13 10 8 7 7 6 6 7 9 10 10 8 8 8 8 8 7 7 7 7 7 7 7 7 7 7 7 7 7 7 7 7 7 7 7 7 7 7 8 8
22 22 22 24 25 26 26 26 26 27 27 27 27 26 26 26 26 25 24 23 22 21 20 19 18 17 15 15 16 18 20 22 23 21 19 17 16 17 20 21 22 21 19 18 16 15 13 10 9 8 7 6 6 8 10 10 9 8 7 7 6 7 7 7 6 5 5 5 5 5 6 6 6 6 6 6 6 6 6 6 7 6 6 6 6 6
22 22 22 22 24 26 27 27 28 28 29 28 28 27 27 27 26 25 24 23 22 22 21 20 20 19 19 19 19 20 22 22 21 20 18 16 15 15 16 18 19 19 17 16 15 14 11 9 8 8 8 7 7 8 9 9 9 8 7 5 3 4 6 6 5 4 4 4 4 4 5 5 6 6 6 6 6 7 7 7 7 7 6 6 6 6
23 22 22 23 25 26 28 29 30 30 30 30 29 28 28 28 27 27 26 25 24 23 23 22 22 22 22 21 21 21 21 21 20 18 17 16 15 15 15 15 16 16 16 15 15 14 11 9 8 8 8 8 9 9 8 8 9 9 7 5 4 4 5 5 4 3 3 3 3 3 4 4 5 5 5 6 6 6 7 7 7 7 7 7 7 7
23 23 23 25 27 28 29 30 31 31 31 30 29 29 28 28 29 29 28 27 26 25 24 24 24 24 23 22 21 20 19 19 18 17 16 16 15 15 14 14 14 15 15 15 14 13 12 10 9 9 9 9 9 8 7 8 9 10 9 6 5 5 4 4 4 3 1 1 2 2 2 2 2 3 3 4 4 5 6 6 6 6 7 7 7 7
23 24 26 28 29 31 32 32 31 30 29 28 27 27 27 27 28 28 28 27 25 24 24 24 24 23 22 20 19 18 17 17 16 16 15 15 15 15 15 15 14 14 14 14 13 13 12 11 11 10 10 10 9 8 8 8 8 9 8 8 6 4 2 2 2 2 0 0 1 1 1 1 2 2 2 3 3 3 4 4 5 5 6 6 7 7
25 26 28 29 31 32 32 30 29 28 26 25 25 25 24 25 25 26 26 25 24 23 22 21 21 21 19 17 16 16 16 15 15 15 15 14 14 14 15 14 14 14 13 13 13 12 12 11 11 12 13 11 9 8 7 7 7 7 7 7 6 4 3 3 2 1 1 1 1 1 2 2 2 2 3 3 4 4 4 4 3 4 4 5 6 6
28 28 29 30 30 30 28 27 26 26 25 25 25 24 23 23 24 24 24 24 23 22 20 19 18 16 14 14 14 14 14 14 14 14 13 13 13 13 13 13 13 13 13 13 13 12 11 11 12 12 13 12 10 8 7 6 6 6 6 6 6 6 6 5 3 2 2 1 1 2 2 2 2 3 3 3 4 4 5 4 4 4 4 4 4 5
28 28 28 28 28 26 25 25 25 24 24 24 24 23 22 22 22 23 24 24 23 20 19 18 16 13 12 11 11 11 12 12 13 13 13 13 12 12 12 12 12 12 12 12 12 12 11 11 12 12 12 11 10 8 7 7 6 6 6 6 6 6 5 4 3 2 2 1 1 2 2 2 3 3 3 2 2 4 5 5 4 4 4 4 4 4
28 27 27 26 25 25 24 25 24 24 23 22 22 22 22 22 21 22 23 23 21 19 17 15 14 12 11 11 11 11 10 10 11 12 13 12 12 12 11 11 11 11 11 11 10 10 10 11 11 11 11 9 7 7 7 8 7 6 6 6 6 5 4 3 3 2 1 1 2 2 2 2 3 3 3 2 2 2 4 5 5 5 4 4 4 4
28 27 27 26 25 24 24 24 24 23 22 22 22 22 21 22 22 22 21 21 19 17 15 13 11 11 11 10 10 11 11 10 10 11 12 12 12 12 11 11 11 11 11 10 10 10 10 10 10 10 10 7 5 5 7 8 8 7 7 7 7 5 4 3 2 2 2 2 2 3 3 3 4 4 3 3 2 1 1 3 5 5 5 5 4 4
28 27 27 26 25 24 23 23 23 22 22 22 22 21 20 21 21 21 20 19 17 15 13 12 11 11 10 10 10 10 11 11 10 10 11 12 13 12 12 12 12 12 11 11 11 10 10 9 9 9 9 8 6 5 7 8 9 9 9 9 8 6 4 3 2 1 2 2 3 3 3 4 4 4 4 4 2 1 1 1 3 4 6 6 5 5
27 27 27 26 25 24 23 23 22 22 22 22 22 21 19 19 19 19 18 16 14 13 12 12 11 11 11 10 10 10 10 10 10 10 10 12 13 14 14 14 13 13 12 11 10 9 9 8 7 6 6 8 8 7 7 9 10 10 10 10 9 6 4 3 2 1 2 2 3 3 4 4 4 4 4 4 3 2 2 1 1 2 4 6 6 6
25 26 26 25 24 23 23 22 22 22 22 23 22 21 19 18 17 17 15 14 12 11 11 11 11 11 11 11 11 11 10 10 10 10 10 12 14 15 14 14 14 12 11 9 8 7 7 6 4 4 4 6 8 8 8 9 9 9 8 8 7 6 5 3 2 1 1 2 3 3 4 4 5 5 5 4 3 3 2 1 1 1 3 5 6 6
Wind_Direction
173 180 188 195 196 194 196 199 200 199 200 198 197 197 199 200 201 203 203 202 202 203 205 207 209 210 211 212 213 215 217 218 218 219 220 220 222 225 230 237 243 247 250 252 253 250 244 237 230 220 209 197 192 193 196 196 188 176 167 167 167 166 162 155 141 122 105 94 93 99 107 116 122 123 120 118 118 120 123 127 131 132 131 128 126 126
173 178 184 190 192 191 192 197 198 198 197 196 196 197 198 199 200 201 201 201 202 202 203 205 207 209 209 210 211 212 213 215 216 218 220 223 227 232 237 241 245 247 248 248 246 241 234 225 216 208 199 193 192 193 194 190 180 169 160 155 154 153 150 145 137 126 116 111 103 98 99 105 111 114 114 113 113 114 116 119 120 121 121 121 122 121
171 174 179 184 186 187 187 191 193 195 197 197 198 199 198 198 199 199 199 200 201 202 203 204 205 207 208 208 209 209 210 213 216 219 223 228 232 236 240 241 243 244 244 242 238 232 224 216 208 201 196 193 192 192 193 190 184 176 168 159 155 153 149 145 138 127 121 133 139 131 113 101 101 104 107 108 109 110 111 113 115 117 119 122 123 123
172 172 175 177 181 184 187 187 188 190 194 197 199 199 198 197 197 198 199 199 200 201 202 203 203 204 205 206 206 207 209 212 216 221 226 231 234 236 238 238 239 239 239 236 231 223 215 210 205 200 196 193 192 192 194 193 190 187 185 181 178 178 185 193 199 189 162 141 142 148 154 144 124 111 108 108 110 111 112 112 113 117 122 127 129 129
175 175 175 175 176 180 186 187 187 188 192 195 196 196 196 197 198 199 199 199 199 200 201 201 201 201 203 204 205 206 209 213 218 222 226 229 231 232 232 233 235 236 236 231 223 214 208 207 205 202 197 193 192 192 194 193 193 193 196 201 207 216 228 230 217 196 173 147 137 139 149 160 165 155 136 123 118 118 120 119 118 119 122 124 127 127
178 177 176 174 174 177 182 185 187 187 188 190 192 193 194 197 198 198 197 198 199 200 200 200 200 201 203 204 206 208 211 215 218 220 222 222 223 224 225 228 231 234 232 225 213 204 203 204 205 204 199 195 192 192 192 191 190 191 195 203 211 220 223 213 192 171 154 147 139 135 135 145 156 163 163 157 148 142 140 138 133 129 126 124 121 120
175 176 175 175 175 177 179 182 185 186 184 185 188 192 194 196 197 196 197 198 199 199 200 200 201 202 204 207 210 212 214 215 216 217 216 215 215 216 218 223 227 228 224 213 203 199 201 204 206 205 202 197 193 191 190 187 186 186 190 194 199 202 198 185 171 159 152 152 148 139 131 133 139 148 155 160 162 160 159 159 158 152 145 137 131 125
167 171 174 174 174 175 177 179 182 184 185 184 185 188 191 194 195 196 197 199 199 199 200 201 203 205 207 210 212 213 213 214 214 214 213 212 212 213 215 218 221 219 213 202 197 199 203 204 206 206 203 199 195 191 187 184 183 183 185 186 186 183 177 171 165 161 160 159 156 147 138 138 141 145 149 156 161 163 164 165 169 172 171 166 159 152
164 166 172 174 173 172 173 178 182 183 184 186 186 186 187 189 191 194 197 198 199 200 200 202 204 208 210 211 212 212 212 212 212 212 212 211 211 211 212 214 214 211 203 195 195 200 205 206 206 207 204 200 196 191 186 182 181 181 182 181 179 175 171 169 167 165 163 161 159 157 156 159 163 165 161 162 166 170 172 173 176 180 184 187 189 189
162 164 168 172 175 175 173 177 181 183 184 185 188 189 189 187 187 188 192 196 200 201 202 203 206 208 210 212 211 210 210 211 212 213 213 211 210 209 209 210 209 205 198 193 194 201 206 207 207 206 205 202 197 191 185 182 181 181 182 180 178 176 175 175 173 169 164 165 168 170 171 174 178 181 176 168 173 179 185 189 191 192 193 197 201 209
159 162 163 166 173 178 178 179 181 182 182 183 185 189 191 191 188 186 186 193 198 201 202 204 206 208 209 210 211 210 209 210 213 214 214 212 209 208 209 209 208 203 197 193 194 199 205 207 207 206 204 203 199 192 186 182 182 182 183 181 180 180 181 181 177 172 168 172 177 180 180 182 184 184 173 157 163 175 185 195 204 209 213 214 217 226
159 161 162 163 168 173 177 179 180 180 179 178 179 186 194 196 195 193 190 191 194 197 199 202 205 207 208 210 211 211 209 210 212 214 213 211 210 210 211 211 209 203 198 194 193 197 204 207 206 205 204 204 201 194 188 184 183 184 183 183 183 183 183 181 178 175 173 177 180 182 183 186 190 190 181 164 155 163 174 186 200 213 224 232 236 243
164 163 162 162 166 170 173 173 173 174 177 179 183 189 196 199 198 197 195 195 194 195 196 198 201 205 208 211 211 210 209 209 211 212 213 213 213 213 213 212 208 203 198 195 194 196 201 205 206 205 206 205 202 196 190 187 185 184 185 185 185 184 182 180 178 177 176 178 179 181 182 189 196 201 201 194 181 174 177 184 196 209 221 231 239 247
162 161 159 161 167 173 176 174 173 175 183 190 195 198 198 197 196 194 193 192 194 195 195 194 198 204 208 210 211 210 209 209 209 210 212 213 214 214 215 212 208 202 198 198 197 196 198 203 206 208 208 206 201 196 191 188 186 185 185 186 185 182 179 178 176 176 176 176 177 180 186 195 203 210 213 214 210 206 204 205 212 221 230 237 244 251
161 160 160 165 172 178 181 181 181 184 191 196 199 199 197 194 192 191 188 185 187 190 190 191 196 203 207 209 208 207 207 207 208 208 209 211 212 213 213 211 206 201 198 199 199 198 198 202 206 209 207 203 198 194 191 188 186 184 184 184 183 181 177 176 175 175 176 176 179 185 193 202 210 217 223 230 233 234 234 235 239 244 249 253 256 261
166 166 168 172 178 183 186 186 186 189 194 197 197 195 191 189 189 190 187 183 181 179 176 178 187 201 209 210 208 205 206 207 208 207 206 208 209 210 210 207 202 199 198 199 200 200 199 201 205 208 206 200 195 192 190 188 186 183 182 181 180 179 177 176 177 178 179 181 185 193 202 210 218 226 235 242 247 250 254 258 262 266 269 270 272 275
172 173 175 177 181 186 189 189 190 191 192 193 194 194 193 191 190 189 188 184 179 175 174 175 177 190 209 212 209 206 205 206 207 206 204 203 204 206 206 201 197 196 197 198 199 198 196 198 202 206 204 198 193 190 189 187 185 182 180 179 179 179 179 179 180 182 184 186 192 199 208 216 225 233 242 249 255 261 268 275 280 284 285 287 289 291
178 180 180 181 184 186 187 188 190 191 191 190 192 194 195 194 191 188 186 184 181 178 180 182 184 185 183 193 204 205 202 202 202 201 199 198 198 200 200 196 193 193 196 197 197 195 194 196 200 203 201 195 190 188 187 186 183 181 179 178 179 180 182 183 184 186 187 190 194 201 209 216 224 232 241 249 258 266 276 282 287 289 292 295 298 301
184 185 185 186 187 186 185 187 190 191 190 191 190 190 189 190 189 187 186 187 186 185 185 186 189 189 183 180 194 199 197 197 196 192 190 190 191 192 193 190 188 188 191 193 193 192 192 194 198 199 197 192 189 187 185 184 182 181 180 180 180 182 185 187 188 188 188 190 193 198 203 209 215 221 229 238 248 257 267 273 277 279 283 289 294 299
189 191 193 193 190 186 187 192 195 196 195 195 192 187 184 185 185 185 186 189 191 191 190 188 188 188 184 184 189 192 191 191 189 183 181 181 183 185 186 183 179 179 182 185 185 185 186 188 191 192 191 188 186 185 183 182 181 181 181 181 183 184 187 188 189 188 187 188 190 194 198 202 206 211 217 224 232 239 246 250 253 256 263 271 282 292
194 198 201 200 195 191 193 199 202 203 201 197 191 185 183 183 183 184 187 190 191 191 189 187 186 186 185 184 184 185 185 186 182 178 175 173 175 179 181 178 173 171 172 174 176 176 176 177 179 182 183 184 183 182 181 180 181 182 182 183 184 186 187 187 187 186 186 187 189 193 196 200 204 210 218 225 231 236 241 243 248 253 260 271 281 293
202 205 207 207 204 203 205 208 208 206 203 197 190 186 187 186 184 185 188 189 188 186 184 182 183 185 187 186 183 182 183 184 182 176 171 164 167 174 177 175 170 164 163 163 165 167 166 166 167 168 170 175 179 180 180 180 181 183 184 186 187 189 188 187 186 186 186 188 192 195 199 203 210 219 229 237 243 246 250 253 258 264 271 279 286 294
210 211 211 210 210 211 212 211 209 206 203 200 198 197 197 195 193 191 190 189 186 183 180 180 182 184 186 185 182 180 182 184 182 176 168 162 165 171 173 173 167 159 157 157 157 159 161 161 161 160 159 163 170 176 179 180 182 184 187 189 191 192 191 190 189 189 191 194 197 202 207 213 222 232 242 250 256 259 262 266 270 274 279 284 290 294
214 214 213 212 211 211 211 209 206 203 201 202 203 205 205 202 199 195 192 188 184 180 178 177 175 174 176 178 177 177 179 182 179 173 165 162 165 168 170 168 163 156 155 155 155 156 159 161 162 161 160 160 162 166 175 180 183 186 189 192 194 195 194 194 194 196 199 203 207 213 220 229 239 249 257 264 268 271 274 277 279 282 285 288 291 293
212 212 213 212 211 210 209 208 206 204 201 200 200 200 198 195 191 187 184 181 178 174 171 164 156 154 162 168 171 174 177 179 177 172 163 157 160 164 166 166 161 155 155 155 156 158 159 161 164 166 166 165 166 168 171 177 182 186 189 192 194 196 197 198 200 204 208 213 217 223 228 236 245 253 261 267 270 274 277 280 282 285 287 289 290 290
210 211 212 212 210 209 208 209 208 206 204 200 197 194 189 183 177 172 168 168 168 165 159 152 149 154 162 165 170 175 177 178 176 173 167 157 157 161 164 166 163 158 156 155 156 158 160 162 165 168 170 172 173 173 174 176 181 185 189 192 194 197 199 201 205 209 214 219 224 229 232 236 240 244 248 252 256 259 263 267 272 277 280 282 283 283
210 213 214 213 210 207 206 207 207 206 203 200 197 193 187 178 168 160 158 162 165 163 158 156 158 160 163 167 173 178 179 178 178 176 170 161 157 161 165 166 163 159 157 156 158 161 164 165 167 169 172 175 178 179 179 179 181 185 188 192 195 198 202 205 209 213 217 221 226 230 234 237 240 242 243 245 246 247 249 252 256 260 265 269 272 274
213 215 215 214 210 206 204 204 203 201 199 197 195 192 187 177 167 160 162 167 168 165 161 162 161 161 165 171 175 178 180 180 180 177 173 164 158 162 168 167 165 161 157 156 160 166 169 170 171 173 175 178 181 182 183 184 186 188 191 195 198 202 206 210 214 217 221 224 227 231 234 237 240 242 244 245 246 247 248 249 251 254 256 259 262 265
208 210 209 206 204 201 199 197 195 194 192 190 189 188 186 180 173 169 170 170 168 165 165 165 165 164 163 163 168 174 180 182 181 178 173 164 159 165 170 168 166 163 159 154 155 162 170 175 177 178 179 182 184 186 188 190 192 195 198 201 205 208 212 215 219 223 226 229 232 235 237 240 242 244 246 248 249 250 252 253 255 257 258 258 258 260
187 188 187 187 186 186 186 185 183 182 181 181 180 180 182 182 179 176 173 170 167 165 165 165 164 161 156 152 154 166 182 186 182 178 173 163 160 166 169 167 166 166 162 154 145 143 167 179 183 184 185 187 188 190 193 196 199 202 206 210 214 217 220 223 226 229 232 235 237 240 242 244 246 248 249 251 252 254 255 257 259 260 261 261 262 262
163 163 161 163 165 168 169 169 168 168 168 170 172 174 177 180 180 178 175 171 169 168 166 164 163 161 158 155 154 163 181 189 183 177 175 164 161 166 168 167 168 169 168 164 160 156 152 175 188 192 190 190 192 195 198 201 205 208 212 216 219 223 226 229 232 235 237 240 242 244 246 248 250 252 253 255 256 257 259 260 262 263 264 265 265 265
153 152 151 153 154 156 157 158 158 158 160 164 168 171 174 177 178 177 175 173 172 171 169 166 165 166 167 169 170 167 167 182 180 177 176 167 163 166 169 169 169 171 172 171 175 177 152 156 178 187 187 187 189 194 199 203 207 210 214 217 221 225 230 232 235 238 241 244 246 248 250 252 254 255 257 258 260 261 262 262 263 264 265 266 267 267
147 147 148 149 150 151 152 153 153 155 158 161 165 168 172 174 176 176 175 175 175 174 172 169 167 167 169 168 162 155 160 173 176 177 178 171 165 165 170 170 171 172 174 174 174 169 150 149 157 166 172 176 179 185 192 200 205 209 212 214 218 224 230 233 236 239 242 246 248 250 252 254 256 258 259 261 262 263 263 264 264 264 264 265 266 267
143 144 144 145 145 146 147 148 150 152 155 158 162 166 169 172 174 175 176 175 175 175 175 173 170 168 166 161 150 145 156 170 174 176 178 175 169 167 170 170 171 172 173 171 164 150 138 142 146 151 159 167 172 175 182 190 197 202 207 210 214 220 226 231 234 237 242 246 250 252 255 257 259 261 262 263 264 265 265 265 264 264 263 262 261 261
140 140 141 141 140 140 141 142 145 148 151 154 158 162 167 170 173 174 175 176 176 177 177 176 174 172 170 165 157 153 159 169 173 176 178 178 174 170 171 172 173 173 171 167 159 146 134 142 148 151 152 157 166 175 180 185 189 195 201 207 211 217 223 229 233 238 244 249 253 256 258 260 262 263 264 264 265 266 266 266 265 264 263 262 260 258
138 137 137 137 136 136 136 138 141 144 147 151 155 160 165 168 171 172 174 176 177 178 179 179 178 177 175 173 169 164 164 169 174 176 178 180 177 173 171 174 176 175 171 167 161 153 144 145 151 154 153 154 162 176 185 189 191 195 201 209 215 221 226 231 236 241 247 251 255 258 260 261 262 263 264 265 265 266 266 266 265 264 262 262 261 259
136 135 135 135 135 134 134 136 139 142 146 150 155 160 164 166 167 169 171 174 176 177 178 178 178 178 178 178 175 172 169 171 173 175 178 180 180 177 174 176 177 176 172 167 162 157 150 147 150 156 161 164 165 170 180 189 193 197 206 214 220 226 231 236 241 244 248 251 254 257 259 260 261 262 263 264 265 265 266 266 265 264 262 262 261 260
133 132 133 133 133 133 133 135 138 142 146 150 154 158 161 162 163 165 166 169 171 171 171 171 171 172 174 177 177 174 171 168 169 172 174 177 179 180 178 178 178 178 177 173 168 162 155 151 154 163 170 170 164 163 171 179 183 191 205 216 224 230 235 240 244 247 248 249 252 255 258 259 261 262 264 265 266 267 269 270 269 268 266 265 263 262
130 129 129 130 132 133 133 135 138 143 147 151 153 155 156 156 157 157 158 159 160 160 159 159 158 157 157 158 160 161 161 162 163 166 168 170 174 178 180 178 178 179 181 179 174 168 162 162 165 168 168 162 158 163 172 175 176 182 197 213 228 239 242 243 245 247 248 250 253 258 261 263 266 268 269 269 269 269 270 271 271 271 271 272 272 273
128 127 126 128 131 134 135 138 141 145 147 149 150 150 149 148 147 146 147 147 147 147 147 147 146 144 143 145 147 150 153 156 159 161 162 164 166 171 176 178 178 179 180 180 177 171 166 167 167 167 164 158 156 160 167 171 176 181 185 189 202 231 246 246 246 248 250 252 257 263 268 270 272 273 273 273 271 269 268 267 267 268 269 269 271 275
126 123 123 126 130 134 136 140 142 144 145 145 144 143 142 140 138 136 135 135 136 137 138 138 137 136 137 138 141 145 149 153 155 158 159 160 162 165 170 175 176 176 177 177 176 172 166 161 157 156 156 154 154 155 159 168 177 180 175 169 175 201 230 244 250 252 257 261 266 270 274 277 277 277 276 275 273 271 269 267 267 267 267 266 265 266
124 123 124 127 130 133 136 139 140 141 142 141 139 137 137 136 135 133 130 129 128 130 132 133 131 130 129 131 136 140 144 148 151 153 156 157 158 159 161 165 169 171 172 172 171 170 167 162 155 150 149 150 148 146 150 165 178 182 180 179 184 200 228 250 257 255 265 284 289 288 291 296 297 295 291 288 284 279 276 273 271 270 269 268 267 266
123 124 127 129 131 134 136 137 137 138 138 138 136 135 136 136 136 134 132 130 128 128 129 130 130 128 124 123 128 134 139 142 145 148 150 152 153 154 155 157 160 163 165 165 164 164 166 164 158 153 153 150 147 144 144 156 171 182 186 187 178 162 153 227 253 257 289 1 357 355 356 354 350 342 329 321 312 305 297 289 283 277 273 270 269 268
124 125 128 130 132 134 135 136 136 137 138 137 136 135 135 136 136 135 132 131 131 131 130 130 129 127 122 122 124 128 133 138 140 142 144 146 148 150 151 152 154 156 158 157 156 156 158 159 159 159 158 151 144 140 142 151 163 175 183 183 177 168 166 188 198 191 99 63 36 22 21 21 17 10 4 357 349 341 336 328 315 299 287 279 274 272
124 126 128 130 132 133 134 136 138 139 138 137 135 134 134 135 136 136 134 133 133 132 132 132 130 125 120 122 124 127 130 134 138 140 141 143 145 147 148 149 150 152 153 153 152 151 150 151 155 158 158 154 147 139 138 146 158 170 180 181 179 179 181 186 181 154 122 88 35 17 19 20 20 23 23 10 353 344 344 345 341 331 318 306 295 285
126 127 130 132 134 135 137 139 140 139 137 135 134 134 135 136 137 136 136 135 134 133 133 134 132 128 127 130 132 131 131 133 136 139 142 143 144 146 147 147 148 148 149 150 151 152 152 153 153 153 152 152 150 147 148 153 157 163 172 175 172 167 165 160 151 137 120 88 35 16 16 15 24 33 36 22 349 337 341 345 345 341 334 329 321 311
130 132 134 136 137 138 140 140 140 138 135 134 134 134 136 137 137 137 136 136 135 133 133 133 131 130 131 135 138 138 137 136 138 141 145 146 146 146 146 146 146 146 146 146 147 148 150 151 151 150 147 143 144 153 165 169 166 161 163 164 158 148 137 129 125 118 95 58 30 20 17 25 37 41 30 31 15 348 339 340 342 343 343 341 336 328
136 137 138 139 139 139 140 141 140 138 135 134 134 135 136 137 138 137 136 135 134 133 132 131 129 129 131 135 139 141 141 139 140 144 148 150 150 149 148 147 146 145 143 142 141 140 141 144 147 149 148 142 141 155 167 173 172 168 165 159 152 145 140 132 119 92 59 38 26 20 21 29 34 35 32 30 24 354 336 333 334 337 341 345 343 336
139 140 140 141 141 141 142 142 140 138 136 135 135 134 135 137 137 137 136 135 135 134 134 133 133 132 132 135 137 138 138 138 139 143 149 153 153 152 150 148 146 143 140 137 136 136 137 138 143 150 156 154 148 151 165 171 172 169 165 157 150 144 137 131 118 81 48 34 27 23 24 26 26 27 29 23 6 335 335 329 327 328 331 334 336 334
140 141 142 142 143 143 144 143 141 139 138 137 136 135 135 135 135 135 135 134 134 135 135 136 136 135 135 136 138 138 138 138 138 140 147 153 154 152 150 148 144 138 132 129 128 127 123 123 130 143 157 164 161 154 155 163 164 161 158 154 150 144 136 132 124 93 51 34 26 23 23 23 23 23 26 18 358 336 333 339 341 331 325 323 323 323
141 143 143 144 144 144 144 143 142 141 140 139 137 136 135 135 134 134 133 132 132 133 133 135 135 134 135 136 138 139 139 139 138 139 145 152 153 151 148 146 141 135 129 128 129 126 116 112 112 120 138 163 166 159 150 153 154 152 151 153 152 148 139 132 124 94 41 26 20 17 18 19 18 17 18 15 357 336 334 342 352 334 319 316 316 314
Height
750 752 754 755 758 761 764 765 767 768 769 770 772 774 776 777 777 778 779 780 780 780 780 780 781 782 783 784 785 786 787 789 789 790 790 791 791 790 790 791 791 792 793 793 794 795 796 796 797 798 798 798 798 799 799 799 800 800 800 800 800 801 801 801 801 801 801 801 800 800 800 800 800 800 800 800 800 800 800 800 801 801 801 802 802 802
750 751 753 755 757 760 763 764 766 767 769 770 772 774 775 776 777 777 778 779 779 779 779 780 780 781 782 783 784 785 786 787 788 789 790 790 790 790 790 790 790 791 791 792 793 794 795 795 796 797 797 798 798 798 798 799 799 799 800 800 800 800 801 801 801 801 801 801 801 801 800 800 800 800 800 801 801 801 801 801 801 802 802 802 802 803
749 751 752 754 757 759 761 763 765 767 768 770 772 774 775 776 776 776 777 777 778 778 778 779 779 780 781 782 783 784 785 786 787 788 788 789 789 789 789 789 789 790 790 791 792 792 793 794 795 796 796 797 797 797 797 798 798 798 799 799 799 800 800 800 800 800 800 801 801 801 801 801 801 801 801 801 801 802 802 802 802 802 803 803 803 803
749 750 751 754 756 758 760 761 763 765 767 769 771 773 775 775 775 775 776 776 777 777 777 778 779 780 780 781 782 783 784 785 786 787 787 787 788 788 788 788 788 789 790 790 791 791 792 794 795 795 796 796 796 796 796 797 797 798 798 798 799 799 799 800 800 800 800 800 800 801 801 801 802 802 802 802 802 802 802 802 802 803 803 803 803 804
749 749 750 752 755 757 759 760 761 762 765 767 770 772 774 774 774 774 775 775 776 776 776 777 778 779 780 780 781 782 783 784 785 785 786 786 786 786 787 787 787 788 789 790 790 791 792 793 794 795 795 795 795 795 795 796 796 797 797 798 798 799 799 800 800 800 800 800 800 800 800 801 801 802 802 802 802 802 802 802 803 803 803 803 804 804
748 749 749 751 754 755 757 758 759 760 762 765 768 770 771 772 772 773 774 775 775 775 776 776 777 778 779 780 780 781 782 783 784 785 785 785 785 785 786 786 787 787 788 789 790 790 791 792 793 794 794 794 795 795 795 795 795 796 797 797 798 798 799 799 799 800 800 800 800 800 800 801 801 802 802 802 803 803 803 803 803 803 803 803 803 803
747 748 749 750 752 754 755 757 757 758 760 763 766 769 770 771 772 772 773 774 774 775 775 775 776 777 778 779 780 781 782 782 783 784 784 784 784 784 785 785 786 787 788 789 789 790 791 792 792 793 794 794 794 794 794 794 795 795 796 796 797 798 798 799 799 799 799 799 799 800 800 801 801 802 802 802 802 803 803 803 803 803 803 803 803 803
745 746 748 750 751 753 755 756 756 757 757 760 764 767 769 770 770 771 772 772 773 774 775 775 776 777 778 779 780 780 781 782 782 783 783 783 783 783 783 784 785 786 787 788 789 790 790 791 792 793 793 793 793 793 793 793 794 794 795 796 796 797 797 798 798 799 799 799 799 800 800 800 801 801 802 802 802 802 802 802 803 803 803 803 803 803
742 744 746 748 750 752 755 756 757 756 757 759 761 764 766 768 769 770 771 771 772 773 773 774 775 776 777 778 778 779 780 780 781 781 782 782 782 782 782 783 784 785 786 787 789 790 790 790 791 792 792 793 793 792 792 793 793 794 794 795 795 796 797 797 798 798 798 798 799 799 800 800 801 801 802 802 802 802 802 802 802 802 802 802 802 803
739 741 744 746 748 750 754 755 756 757 757 758 760 762 764 765 767 769 770 770 771 771 772 773 774 775 775 776 777 778 779 779 780 780 780 781 781 781 781 782 783 784 785 787 788 789 789 790 791 791 792 792 792 792 792 792 793 793 794 794 795 795 796 797 797 797 798 798 799 799 800 800 800 801 801 802 802 802 802 802 802 802 802 802 802 802
738 739 741 744 747 750 752 754 755 756 756 758 760 762 763 764 765 766 768 768 769 769 770 771 772 773 774 775 776 776 777 778 779 779 780 780 780 780 781 781 782 783 785 786 787 788 788 789 790 791 791 792 792 792 792 792 792 793 793 793 794 795 795 796 796 797 797 798 798 799 799 800 800 800 800 801 801 802 802 802 802 802 802 802 802 802
736 738 739 741 745 748 751 753 755 755 756 757 760 762 763 763 763 764 765 765 766 766 768 769 770 772 773 774 775 775 776 777 778 779 779 779 780 780 780 781 782 783 784 785 786 787 787 788 789 790 790 791 791 791 791 792 792 792 792 793 793 794 795 795 796 796 797 797 798 798 799 799 800 800 800 800 801 801 801 802 802 802 802 802 802 802
733 735 737 739 742 746 750 752 754 755 755 756 758 759 760 760 761 762 763 763 763 764 765 767 769 771 772 773 774 775 775 776 777 778 778 779 779 780 780 780 781 782 783 784 785 786 787 787 788 789 790 790 791 791 791 791 791 791 792 792 793 794 794 795 795 796 796 797 797 798 798 799 799 800 800 800 800 801 801 801 801 801 801 801 801 801
731 733 735 738 741 744 747 749 750 751 752 753 754 754 755 757 759 760 761 762 762 762 764 766 768 770 771 772 773 774 774 775 776 777 778 778 778 779 779 780 780 781 782 783 784 785 786 786 787 788 789 790 790 790 790 791 791 791 791 792 792 793 794 794 795 795 795 796 797 797 798 798 799 799 799 800 800 800 800 800 801 801 801 801 801 801
728 730 733 735 739 741 744 745 746 746 748 750 751 753 754 755 757 759 760 760 761 762 764 766 768 769 770 771 771 772 773 774 775 775 776 777 777 778 778 779 779 780 781 782 783 784 785 785 786 787 788 789 789 790 790 790 790 790 791 791 792 793 793 794 794 795 795 795 796 797 797 798 798 798 799 799 800 800 800 800 800 800 800 800 800 800
725 727 730 732 735 738 740 741 742 743 745 747 749 751 752 753 755 756 757 758 759 761 763 766 768 769 769 769 770 771 772 772 773 774 775 775 776 777 777 778 778 779 780 781 782 783 784 785 785 786 787 788 788 789 789 790 790 790 790 791 791 792 793 793 794 794 795 795 795 796 797 797 798 798 798 799 799 799 799 799 799 799 800 800 800 800
723 725 726 729 732 734 736 737 738 740 742 745 747 748 749 749 750 752 754 755 757 759 761 764 766 767 768 768 768 769 770 771 772 773 774 774 775 775 776 776 777 778 779 780 781 782 783 783 784 785 786 787 787 788 788 789 789 790 790 790 791 792 792 793 794 794 794 795 795 796 796 797 797 798 798 798 798 798 798 798 799 799 799 799 799 799
720 721 723 726 728 730 732 734 735 738 740 742 744 745 746 747 748 749 751 753 755 757 759 760 761 763 764 765 766 766 768 769 770 772 773 773 774 774 775 775 775 776 778 779 780 781 781 782 783 785 785 786 786 787 787 788 788 789 789 790 790 791 792 793 793 794 794 794 795 795 796 796 797 797 797 798 798 798 798 798 798 798 798 798 798 798
717 718 720 722 724 726 728 730 732 735 737 739 741 743 745 746 746 747 748 750 752 754 755 757 758 759 760 761 762 764 766 768 769 771 772 772 773 773 773 774 774 775 777 778 779 780 781 782 783 784 785 785 786 786 786 787 787 788 789 789 790 791 791 792 793 793 794 794 794 795 795 796 796 797 797 797 797 797 797 797 798 798 798 798 798 798
714 715 717 718 721 723 725 726 728 730 732 734 736 738 741 742 744 745 746 748 750 752 753 754 755 757 758 758 760 762 765 766 768 770 770 771 771 772 772 773 774 775 776 777 778 779 780 781 783 784 784 785 785 785 786 786 787 787 788 789 789 790 791 792 792 793 793 794 794 795 795 795 796 796 796 797 797 797 797 797 797 797 798 798 798 798
711 712 713 715 717 720 721 722 724 726 728 730 733 735 737 739 740 742 744 746 749 750 752 753 754 755 756 757 759 761 763 765 767 768 769 770 770 771 771 772 773 774 775 776 777 778 780 781 782 783 784 784 785 785 785 785 786 787 787 788 789 790 790 791 792 792 793 793 793 794 794 795 795 796 796 796 796 797 797 797 797 797 797 797 797 797
707 709 710 712 714 715 716 718 720 722 725 727 729 732 733 735 736 738 740 744 746 749 750 751 752 753 755 756 758 760 762 764 765 766 767 769 770 770 770 771 772 773 774 775 776 778 779 780 781 783 784 784 784 784 785 785 785 786 787 787 788 789 790 791 791 792 792 793 793 793 794 794 795 795 795 796 796 796 796 796 797 797 797 797 797 796
704 705 708 710 711 711 712 714 716 719 721 723 725 726 727 728 729 731 735 739 743 746 748 749 750 752 755 756 758 760 761 763 764 765 766 768 769 769 770 770 772 773 774 775 776 777 778 779 780 781 783 784 784 784 784 784 785 785 786 787 788 789 790 790 791 791 792 792 792 793 793 794 794 795 795 795 795 795 796 796 796 796 796 796 796 796
701 703 705 706 708 709 710 711 713 715 718 720 722 724 725 725 726 728 732 736 740 743 745 748 750 753 755 757 758 760 761 762 763 764 765 766 767 768 769 770 771 772 773 774 775 776 777 779 780 780 781 782 783 784 784 784 784 785 785 786 787 788 789 789 790 790 791 791 791 792 792 793 793 794 794 794 795 795 795 795 795 795 795 795 795 795
698 700 701 703 704 705 706 708 710 712 715 718 721 723 724 725 726 728 732 735 739 742 745 748 751 753 755 756 758 759 760 761 762 763 764 765 766 767 768 769 770 771 773 774 775 776 777 778 779 780 780 780 781 782 783 783 784 784 785 786 786 787 788 789 789 790 790 790 791 791 791 792 792 793 793 793 793 794 794 794 794 794 794 794 794 794
695 697 698 700 701 702 704 705 707 710 712 715 717 719 720 722 724 728 732 736 739 741 745 748 750 752 754 755 757 758 759 760 760 761 762 763 765 766 767 768 769 771 772 773 775 776 777 778 778 779 780 780 780 781 782 782 783 784 784 785 786 786 787 788 788 789 789 790 790 790 791 791 791 792 792 792 793 793 793 793 793 793 793 793 793 792
693 695 697 698 699 700 701 704 706 708 710 713 714 715 716 718 722 727 731 734 736 739 742 745 748 751 753 755 756 756 757 758 759 760 761 762 764 765 767 767 769 770 771 773 774 775 776 777 778 779 779 780 780 780 781 782 782 783 783 784 785 785 786 787 787 788 788 789 789 790 790 790 790 791 791 791 792 792 792 792 792 792 792 791 791 791
692 694 695 696 697 698 700 702 705 707 709 711 712 712 712 715 720 725 728 731 734 737 740 742 745 748 751 753 754 755 756 757 758 759 760 761 763 764 765 766 768 769 770 772 774 775 776 777 777 778 779 779 780 780 780 781 781 782 783 783 784 785 785 786 786 787 787 788 788 789 789 789 790 790 790 790 790 791 791 791 791 790 791 790 790 790
691 693 694 695 696 698 700 702 705 707 708 710 710 710 711 714 717 721 724 728 731 735 737 740 742 745 748 750 752 754 755 756 756 757 759 760 761 763 764 765 767 768 770 771 774 775 776 776 777 777 778 779 779 780 780 780 781 781 782 782 783 784 784 785 785 786 786 787 787 788 788 788 789 789 789 789 790 790 790 790 790 790 790 790 790 790
690 692 694 695 696 698 700 703 705 707 708 709 709 710 712 714 716 719 722 726 730 732 735 738 740 743 745 749 752 754 755 755 755 756 757 759 760 761 763 764 765 767 768 770 773 775 776 776 776 777 777 778 778 779 779 780 780 780 781 782 782 783 783 784 785 785 785 786 786 787 787 787 787 788 788 788 788 788 788 788 788 788 788 788 788 788
688 690 693 695 696 698 701 703 705 707 707 708 709 711 713 715 717 720 722 725 728 730 733 736 739 741 743 746 749 751 752 753 753 754 755 757 758 760 762 763 765 765 767 769 770 773 775 776 776 776 776 777 777 778 778 779 779 780 780 781 781 782 783 783 784 784 785 785 785 785 786 786 786 786 787 787 787 787 787 787 787 787 787 787 786 786
686 689 691 694 696 698 700 702 703 704 705 706 708 710 713 715 718 720 722 725 727 729 732 735 737 740 741 742 743 745 747 749 751 753 754 755 756 759 760 762 763 765 766 767 768 769 771 774 775 776 776 776 777 777 777 778 778 779 780 780 780 781 782 782 783 783 784 784 784 785 785 785 785 785 785 785 785 785 785 785 785 785 785 785 785 785
685 688 691 693 695 696 698 699 700 701 703 705 708 710 713 715 718 720 722 725 727 729 731 733 736 738 740 741 741 742 744 747 749 751 752 753 755 757 760 761 762 764 765 766 767 767 769 771 773 775 775 776 776 776 776 777 778 778 779 779 780 780 781 781 782 782 783 783 783 784 784 784 784 784 784 784 784 784 784 784 784 784 784 784 784 784
685 688 690 692 693 695 695 696 698 700 702 705 708 710 713 715 717 720 722 725 727 729 731 733 734 736 738 740 741 742 744 746 748 750 751 752 754 756 758 760 761 763 764 765 766 767 768 769 771 773 775 775 775 776 776 776 777 778 778 779 779 780 780 781 781 781 782 782 782 783 783 783 783 783 783 783 783 783 783 783 783 783 783 783 783 783
685 688 689 690 692 693 694 695 697 700 703 705 708 710 713 715 717 720 722 724 726 728 730 732 733 735 736 737 739 741 743 745 747 749 750 751 753 755 757 759 760 761 763 764 765 766 768 769 770 772 773 775 776 776 776 776 777 777 778 778 779 779 780 780 780 781 781 781 782 782 782 782 782 782 782 782 781 781 781 781 781 781 781 781 781 781
684 687 688 689 690 692 693 695 697 700 704 706 709 711 714 716 718 720 722 724 726 728 730 731 733 734 735 736 737 739 741 743 745 748 749 751 752 754 756 757 759 760 762 763 764 765 767 769 770 771 772 774 775 775 776 776 776 777 778 778 779 779 779 780 780 780 780 781 781 781 781 781 781 780 780 780 780 780 780 780 780 780 780 780 780 780
682 685 687 688 689 691 693 695 698 701 704 707 710 712 714 716 718 720 721 724 726 728 730 731 733 734 735 736 737 738 740 742 745 747 749 750 752 753 754 756 757 759 761 762 763 765 766 768 770 771 772 772 773 774 775 775 776 777 777 778 778 778 779 779 779 780 780 780 780 780 780 780 780 779 779 779 779 779 779 778 778 778 778 778 779 779
681 683 685 687 688 690 692 695 698 701 705 708 711 713 715 716 718 720 721 723 725 727 729 730 732 734 735 736 738 739 740 742 744 746 748 750 751 753 754 755 757 758 760 761 762 763 765 767 768 770 770 771 772 773 774 775 775 776 777 777 777 778 778 779 779 779 779 779 779 779 779 779 779 778 778 778 778 778 777 777 777 777 777 777 777 777
680 682 685 686 688 690 693 696 699 702 705 708 711 714 715 717 718 720 721 723 725 727 728 730 732 734 735 737 738 740 741 743 745 747 748 750 751 752 754 755 756 758 759 760 762 763 764 765 766 767 769 770 771 772 773 774 775 775 776 777 777 777 778 778 778 778 778 778 778 778 778 778 777 777 777 777 777 777 776 776 776 776 776 776 776 776
679 681 684 686 688 690 693 696 700 703 706 709 712 714 715 717 718 720 721 723 725 727 729 730 732 734 735 737 739 740 742 744 745 747 748 750 751 752 754 755 756 758 759 760 762 763 764 765 765 766 767 768 770 771 772 773 774 775 776 777 777 777 777 777 778 778 778 778 778 777 777 777 777 776 776 776 776 775 775 775 775 775 775 775 776 776
678 681 684 686 689 691 694 697 700 704 707 710 713 715 716 717 718 720 721 723 725 727 729 730 732 734 736 737 739 741 742 744 745 747 748 750 751 752 753 755 756 757 759 760 761 762 763 764 765 765 766 767 769 770 771 773 774 775 775 777 777 777 777 777 777 777 777 777 777 777 776 776 776 775 775 775 775 775 775 775 775 775 775 775 775 775
677 680 683 686 689 692 695 699 702 706 709 711 713 715 716 717 718 719 721 723 725 728 730 731 733 735 737 739 740 742 743 745 746 747 748 749 750 752 753 754 755 757 758 759 760 761 762 763 764 765 766 767 768 770 771 772 773 774 775 776 776 777 777 777 777 777 777 777 776 776 776 775 775 775 775 774 774 774 774 774 774 774 774 774 774 774
678 680 683 686 689 692 696 700 704 707 710 712 714 715 716 717 718 719 720 723 725 728 730 732 733 735 737 739 741 743 744 745 746 747 748 750 750 751 753 754 755 756 757 758 760 760 761 762 763 764 765 766 768 769 770 772 773 774 775 775 776 777 777 777 777 776 776 776 776 775 775 775 775 774 774 774 773 773 773 773 773 773 773 773 773 773
678 681 684 687 690 694 698 702 705 708 711 712 714 715 716 717 718 720 721 723 726 728 730 732 734 735 738 740 742 744 745 746 747 748 749 750 750 751 753 754 755 756 757 758 759 760 761 762 763 764 765 766 767 769 770 771 773 774 775 775 776 776 777 777 776 776 776 776 775 775 775 775 774 774 773 773 773 773 772 772 772 772 772 772 772 772
678 681 685 689 693 696 700 703 706 709 710 712 713 715 716 717 719 720 722 724 726 729 731 732 734 736 739 741 743 744 745 746 747 748 749 750 751 752 753 754 755 755 756 758 759 760 761 762 763 764 765 766 767 769 770 771 773 774 774 775 775 775 776 776 776 776 776 775 775 775 774 774 774 774 773 773 773 772 772 772 771 771 771 771 771 772
679 684 688 691 695 698 701 704 706 708 710 711 713 714 716 718 719 721 722 724 726 729 731 733 735 737 739 741 743 745 745 747 747 748 749 750 751 752 753 754 755 755 757 758 759 760 761 762 763 764 765 766 767 769 770 771 772 773 774 775 775 775 775 775 775 775 775 775 775 774 774 774 774 773 773 773 773 772 772 771 771 771 771 771 771 771
681 685 689 692 695 698 701 704 706 708 709 711 712 714 716 718 720 721 723 725 727 729 731 733 735 737 739 741 742 744 745 746 747 748 749 750 751 752 753 754 755 756 757 758 759 760 761 762 763 764 765 766 768 769 770 771 772 773 774 774 775 775 775 775 775 775 775 775 774 774 774 774 773 773 773 773 772 772 771 771 771 770 770 770 770 771
682 686 689 692 695 698 701 703 705 706 708 710 712 714 716 718 720 721 724 725 727 730 732 734 736 737 739 741 742 743 744 745 747 748 748 749 750 751 752 754 755 756 757 758 759 760 761 762 763 764 765 767 768 769 770 771 772 772 773 774 774 775 775 775 775 775 774 774 774 774 773 773 773 773 773 772 772 772 772 771 770 770 770 770 770 770
683 686 689 692 695 697 700 702 704 705 707 710 712 714 716 718 720 722 724 726 728 730 732 734 735 737 739 740 742 743 744 745 746 747 748 749 750 751 752 753 755 756 757 758 759 760 761 763 764 764 765 766 768 769 770 770 771 772 772 773 774 774 775 775 774 774 774 774 773 773 773 773 773 772 772 772 772 772 772 771 771 770 770 770 770 770
684 686 689 691 694 696 699 701 703 705 707 709 711 714 716 719 720 722 724 726 728 730 732 734 735 737 738 740 741 742 743 745 745 747 748 749 750 750 752 753 754 755 757 758 760 761 762 763 764 765 766 766 767 769 770 770 771 772 772 773 773 774 774 774 774 774 774 773 773 773 773 772 772 772 772 772 772 772 771 771 771 770 770 770 770 770
685 687 689 691 693 695 698 700 702 704 706 709 711 713 716 718 720 723 725 727 729 730 732 734 735 736 738 739 740 742 743 744 745 746 747 748 749 750 751 752 754 755 757 758 760 761 762 764 765 766 767 767 767 768 770 770 771 772 772 773 773 773 773 774 774 773 773 773 773 773 772 772 772 772 772 772 772 771 771 771 771 771 770 770 770 770